When you browse on this site, cookies collect data to enhance your experience and personalize the content and advertising you see.
Visit our Privacy Policy to learn more. By continuing to use the site, you agree to this use of cookies and data.
  • In Deutschland
  • Länderverzeichnis
  • Für 7 Tage
  • Wassertemperatur
  • Wetterkarte
  • Widgets
  • user-avatar
    Anmelden

    Stündliche Wetter Adelaide

    Heute, 20 November, Mittwoch

    Zeit Temperatur Niederschläge Wind Luftdruck Luftfeuchtigkeit
    00:00 +22°C° 0 mm 3 m/S 753 mmHg 43%
    01:00 +22°C° 0 mm 3 m/S 753 mmHg 42%
    02:00 +22°C° 0 mm 3 m/S 752 mmHg 42%
    03:00 +24°C° 0 mm 3 m/S 751 mmHg 37%
    04:00 +26°C° 0 mm 4 m/S 751 mmHg 34%
    05:00 +27°C° 0 mm 4 m/S 751 mmHg 32%
    06:00 +28°C° 0 mm 4 m/S 752 mmHg 29%
    07:00 +32°C° 0 mm 5 m/S 751 mmHg 25%
    08:00 +35°C° 0 mm 6 m/S 751 mmHg 20%
    09:00 +39°C° 0 mm 8 m/S 750 mmHg 15%
    10:00 +40°C° 0 mm 8 m/S 750 mmHg 14%
    11:00 +40°C° 0 mm 9 m/S 750 mmHg 14%
    12:00 +42°C° 0 mm 9 m/S 749 mmHg 13%
    13:00 +42°C° 0 mm 9 m/S 748 mmHg 13%
    14:00 +42°C° 0 mm 9 m/S 747 mmHg 13%
    15:00 +42°C° 0 mm 9 m/S 747 mmHg 12%
    16:00 +40°C° 0 mm 8 m/S 747 mmHg 13%
    17:00 +39°C° 0 mm 7 m/S 747 mmHg 14%
    18:00 +38°C° 0 mm 6 m/S 747 mmHg 15%
    19:00 +36°C° 0 mm 6 m/S 746 mmHg 15%
    20:00 +35°C° 0 mm 6 m/S 746 mmHg 16%
    21:00 +34°C° 0 mm 5 m/S 746 mmHg 16%
    22:00 +34°C° 0 mm 6 m/S 745 mmHg 15%
    23:00 +34°C° 0 mm 6 m/S 745 mmHg 15%

    Morgen, 21 November, Donnerstag

    Zeit Temperatur Niederschläge Wind Luftdruck Luftfeuchtigkeit
    00:00 +34°C° 0 mm 7 m/S 744 mmHg 14%
    01:00 +34°C° 0 mm 7 m/S 744 mmHg 15%
    02:00 +34°C° 0 mm 7 m/S 744 mmHg 15%
    03:00 +34°C° 0 mm 7 m/S 744 mmHg 16%
    04:00 +28°C° 0 mm 7 m/S 746 mmHg 36%
    05:00 +23°C° 0 mm 7 m/S 747 mmHg 55%
    06:00 +18°C° 0 mm 7 m/S 749 mmHg 75%
    07:00 +18°C° 0 mm 7 m/S 750 mmHg 73%
    08:00 +18°C° 0 mm 7 m/S 751 mmHg 71%
    09:00 +18°C° 0 mm 7 m/S 753 mmHg 69%
    10:00 +20°C° 0 mm 7 m/S 753 mmHg 64%
    11:00 +21°C° 0 mm 7 m/S 754 mmHg 59%
    12:00 +22°C° 0 mm 6 m/S 755 mmHg 54%
    13:00 +21°C° 0 mm 6 m/S 754 mmHg 55%
    14:00 +21°C° 0 mm 6 m/S 754 mmHg 56%
    15:00 +20°C° 0 mm 6 m/S 754 mmHg 57%
    16:00 +20°C° 0 mm 6 m/S 755 mmHg 59%
    17:00 +19°C° 0 mm 6 m/S 755 mmHg 60%
    18:00 +17°C° 0 mm 6 m/S 756 mmHg 61%
    19:00 +16°C° 0 mm 5 m/S 756 mmHg 67%
    20:00 +14°C° 0 mm 4 m/S 757 mmHg 73%
    21:00 +13°C° 0 mm 3 m/S 757 mmHg 80%
    22:00 +12°C° 0 mm 3 m/S 758 mmHg 82%
    23:00 +12°C° 0 mm 3 m/S 758 mmHg 84%

    übermorgen, 22 November, Freitag

    Zeit Temperatur Niederschläge Wind Luftdruck Luftfeuchtigkeit
    00:00 +12°C° 0 mm 3 m/S 758 mmHg 86%
    01:00 +11°C° 0 mm 3 m/S 758 mmHg 86%
    02:00 +11°C° 0 mm 3 m/S 758 mmHg 86%
    03:00 +11°C° 0 mm 3 m/S 758 mmHg 86%
    04:00 +13°C° 0 mm 2 m/S 759 mmHg 82%
    05:00 +13°C° 0 mm 2 m/S 759 mmHg 78%
    06:00 +14°C° 0 mm 1 m/S 760 mmHg 74%
    07:00 +16°C° 0 mm 2 m/S 760 mmHg 65%
    08:00 +17°C° 0 mm 3 m/S 760 mmHg 56%
    09:00 +19°C° 0 mm 3 m/S 760 mmHg 47%
    10:00 +19°C° 0 mm 4 m/S 760 mmHg 44%
    11:00 +20°C° 0 mm 4 m/S 759 mmHg 41%
    12:00 +20°C° 0 mm 4 m/S 759 mmHg 39%
    13:00 +20°C° 0 mm 4 m/S 759 mmHg 40%
    14:00 +20°C° 0 mm 4 m/S 759 mmHg 42%
    15:00 +20°C° 0 mm 5 m/S 759 mmHg 44%
    16:00 +19°C° 0 mm 4 m/S 759 mmHg 49%
    17:00 +18°C° 0 mm 4 m/S 759 mmHg 55%
    18:00 +17°C° 0 mm 4 m/S 760 mmHg 60%
    19:00 +15°C° 0 mm 4 m/S 760 mmHg 67%
    20:00 +13°C° 0 mm 3 m/S 760 mmHg 73%
    21:00 +12°C° 0 mm 3 m/S 761 mmHg 80%
    22:00 +12°C° 0 mm 3 m/S 761 mmHg 81%
    23:00 +13°C° 0 mm 2 m/S 761 mmHg 82%

    23 November, Samstag

    Zeit Temperatur Niederschläge Wind Luftdruck Luftfeuchtigkeit
    00:00 +12°C° 0 mm 2 m/S 761 mmHg 83%
    01:00 +12°C° 0 mm 2 m/S 760 mmHg 83%
    02:00 +12°C° 0 mm 2 m/S 760 mmHg 83%
    03:00 +13°C° 0 mm 2 m/S 760 mmHg 83%
    04:00 +13°C° 0 mm 2 m/S 761 mmHg 79%
    05:00 +14°C° 0 mm 2 m/S 761 mmHg 76%
    06:00 +15°C° 0 mm 2 m/S 761 mmHg 72%
    07:00 +17°C° 0 mm 2 m/S 761 mmHg 67%
    08:00 +18°C° 0 mm 2 m/S 761 mmHg 61%
    09:00 +20°C° 0 mm 2 m/S 761 mmHg 56%
    10:00 +20°C° 0 mm 3 m/S 761 mmHg 55%
    11:00 +20°C° 0 mm 3 m/S 761 mmHg 54%
    12:00 +21°C° 0 mm 3 m/S 761 mmHg 52%
    13:00 +21°C° 0 mm 4 m/S 760 mmHg 52%
    14:00 +21°C° 0 mm 5 m/S 760 mmHg 52%
    15:00 +21°C° 0 mm 5 m/S 760 mmHg 52%
    16:00 +20°C° 0 mm 5 m/S 760 mmHg 57%
    17:00 +19°C° 0 mm 5 m/S 761 mmHg 62%
    18:00 +18°C° 0 mm 4 m/S 761 mmHg 67%
    19:00 +15°C° 0 mm 4 m/S 761 mmHg 73%
    20:00 +14°C° 0 mm 4 m/S 762 mmHg 79%
    21:00 +12°C° 0 mm 3 m/S 762 mmHg 85%
    22:00 +12°C° 0 mm 3 m/S 762 mmHg 86%
    23:00 +12°C° 0 mm 2 m/S 761 mmHg 86%

    24 November, Sonntag

    Zeit Temperatur Niederschläge Wind Luftdruck Luftfeuchtigkeit
    00:00 +10°C° 0 mm 2 m/S 761 mmHg 87%
    01:00 +10°C° 0 mm 2 m/S 761 mmHg 87%
    02:00 +10°C° 0 mm 2 m/S 760 mmHg 88%
    03:00 +10°C° 0 mm 2 m/S 760 mmHg 88%
    04:00 +12°C° 0 mm 2 m/S 760 mmHg 84%
    05:00 +12°C° 0 mm 2 m/S 760 mmHg 80%
    06:00 +13°C° 0 mm 2 m/S 760 mmHg 76%
    07:00 +16°C° 0 mm 2 m/S 760 mmHg 62%
    08:00 +19°C° 0 mm 2 m/S 760 mmHg 48%
    09:00 +23°C° 0 mm 2 m/S 760 mmHg 35%
    10:00 +23°C° 0 mm 2 m/S 759 mmHg 33%
    11:00 +24°C° 0 mm 3 m/S 758 mmHg 32%
    12:00 +25°C° 0 mm 3 m/S 758 mmHg 31%
    13:00 +25°C° 0 mm 3 m/S 757 mmHg 29%
    14:00 +26°C° 0 mm 3 m/S 757 mmHg 28%
    15:00 +26°C° 0 mm 3 m/S 756 mmHg 26%
    16:00 +25°C° 0 mm 3 m/S 756 mmHg 30%
    17:00 +22°C° 0 mm 3 m/S 756 mmHg 35%
    18:00 +21°C° 0 mm 3 m/S 757 mmHg 39%
    19:00 +20°C° 0 mm 2 m/S 757 mmHg 41%
    20:00 +18°C° 0 mm 2 m/S 757 mmHg 43%
    21:00 +18°C° 0 mm 1 m/S 757 mmHg 45%
    22:00 +18°C° 0 mm 1 m/S 756 mmHg 41%
    23:00 +17°C° 0 mm 2 m/S 755 mmHg 37%

    25 November, Montag

    Zeit Temperatur Niederschläge Wind Luftdruck Luftfeuchtigkeit
    00:00 +17°C° 0 mm 2 m/S 755 mmHg 33%
    01:00 +18°C° 0 mm 2 m/S 754 mmHg 33%
    02:00 +18°C° 0 mm 3 m/S 753 mmHg 33%
    03:00 +18°C° 0 mm 4 m/S 752 mmHg 33%
    04:00 +19°C° 0 mm 4 m/S 752 mmHg 32%
    05:00 +20°C° 0 mm 4 m/S 752 mmHg 31%
    06:00 +22°C° 0 mm 4 m/S 752 mmHg 31%
    07:00 +26°C° 0 mm 5 m/S 752 mmHg 28%
    08:00 +28°C° 0 mm 5 m/S 751 mmHg 25%
    09:00 +32°C° 0 mm 5 m/S 751 mmHg 22%
    10:00 +33°C° 0 mm 7 m/S 750 mmHg 22%
    11:00 +33°C° 0 mm 8 m/S 750 mmHg 22%
    12:00 +33°C° 0 mm 9 m/S 749 mmHg 22%
    13:00 +33°C° 0 mm 10 m/S 748 mmHg 23%
    14:00 +33°C° 0 mm 10 m/S 748 mmHg 25%
    15:00 +33°C° 0 mm 11 m/S 747 mmHg 27%
    16:00 +31°C° 0 mm 9 m/S 748 mmHg 34%
    17:00 +27°C° 0 mm 6 m/S 748 mmHg 40%
    18:00 +25°C° 0 mm 4 m/S 749 mmHg 47%
    19:00 +22°C° 0 mm 5 m/S 750 mmHg 58%
    20:00 +20°C° 0 mm 6 m/S 751 mmHg 69%
    21:00 +17°C° 0 mm 7 m/S 752 mmHg 80%
    22:00 +16°C° 0 mm 6 m/S 752 mmHg 79%
    23:00 +15°C° 0 mm 6 m/S 753 mmHg 78%
    Mehr zeigen